Regional Weather Roundup
Issued by NWS

Home | Current Version | Previous Version | Text Only | Print | Product List | Glossary On
Versions: 1 2 3 4 5 6 7 8 9 10 11 12 13 14 15 16 17 18 19 20 21 22 23 24 25 26 27 28 29 30 31 32 33 34 35 36 37 38 39 40 41 42 43 44 45 46 47 48 49 50
368
ASUS43 KOAX 022110
RWRNE

WEATHER ROUNDUP FOR NEBRASKA
NATIONAL WEATHER SERVICE OMAHA NE
300 PM CST FRI DEC 02 2016

NOTES: SATELLITE DATA IS BEING USED TO AUGMENT CLOUD COVER ABOVE
       12000 FEET.
       "FAIR" INDICATES FEW OR NO CLOUDS BELOW 12,000 FEET WITH NO
       SIGNIFICANT WEATHER AND/OR OBSTRUCTIONS TO VISIBILITY.

  * THESE STATIONS DO NOT REPORT WEATHER SUCH AS RAIN...SNOW OR FOG.

NEZ001>004-019>022-054>056-022200-
NEBRASKA PANHANDLE

CITY           SKY/WX    TMP DP  RH WIND       PRES   REMARKS
SCOTTSBLUFF    SUNNY     40  20  44 W6        30.19F
ALLIANCE       CLOUDY    40  19  43 SW5       30.17F
CHADRON        SUNNY     44  18  35 W6        30.18F
KIMBALL        CLOUDY    36  24  63 CALM      30.18S
SIDNEY         CLOUDY    37  23  56 CALM      30.20R
$$

NEZ057>060-069>072-079>082-022200-
SOUTHWEST NEBRASKA

CITY           SKY/WX    TMP DP  RH WIND       PRES   REMARKS
NORTH PLATTE   SUNNY     43  19  38 SW5       30.24R
IMPERIAL       CLOUDY    41  23  48 CALM      30.23R
LEXINGTON      SUNNY     40  25  55 CALM      30.25S
MCCOOK         CLOUDY    42  23  46 CALM      30.26R
OGALLALA       CLOUDY    43  24  46 CALM      30.21S
$$

NEZ005>010-023>029-035>040-094-022200-
NORTH CENTRAL NEBRASKA

CITY           SKY/WX    TMP DP  RH WIND       PRES   REMARKS
VALENTINE      CLOUDY    42  25  50 N7        30.22R
AINSWORTH      SUNNY     42  26  52 NW6       30.22S
BROKEN BOW     SUNNY     43  23  45 NW5       30.22F
O`NEILL        MOSUNNY   37  27  65 CALM      30.26S
ORD            SUNNY     42  22  44 NW6       30.25S
THEDFORD       SUNNY     45  22  39 NW3       30.21S
$$

NEZ041-046>049-061>064-073>077-083>087-022200-
SOUTH CENTRAL NEBRASKA

CITY           SKY/WX    TMP DP  RH WIND       PRES   REMARKS
GRAND ISLAND   SUNNY     40  25  55 NW3       30.27S
AURORA         SUNNY     40  25  54 NW3       30.27S
HASTINGS       MOSUNNY   40  26  57 N6        30.27F
HEBRON         MOSUNNY   42  26  54 N3        30.27S
HOLDREGE       CLOUDY    39  25  56 CALM      30.25S
KEARNEY *      SUNNY     39  23  52 CALM      30.26S
YORK           MOSUNNY   39  27  60 NW5       30.28S
$$

NEZ011>018-030>034-042>045-022200-
NORTHEAST NEBRASKA

CITY           SKY/WX    TMP DP  RH WIND       PRES   REMARKS
NORFOLK        CLOUDY    35  25  66 NW8       30.28S WCI  29
ALBION         MOSUNNY   39  26  59 NW3       30.27S
BLAIR          CLOUDY    39  30  71 NW8       30.28R WCI  33
FREMONT        CLOUDY    39  30  70 NW5       30.30R
TEKAMAH        CLOUDY    39  29  67 W9        30.30S WCI  33
WAYNE          CLOUDY    36  29  78 NW7       30.29S WCI  30
$$

NEZ050>053-065>068-078-088>093-022200-
SOUTHEAST NEBRASKA

CITY           SKY/WX    TMP DP  RH WIND       PRES   REMARKS
LINCOLN        SUNNY     44  26  49 W6        30.29S
OMAHA EPPLEY   PTSUNNY   40  30  67 N8        30.30R WCI  34
BEATRICE       SUNNY     45  28  51 NW5       30.27F
FALLS CITY       N/A    N/A N/A N/A MISG      30.28S
NEBRASKA CITY  SUNNY     43  26  50 NW7       30.28S
PLATTSMOUTH    SUNNY     42  26  52 NW6       30.29R
$$

NEZ044-045-051>053-067-022200-
OMAHA AREA

CITY           SKY/WX    TMP DP  RH WIND       PRES   REMARKS
OMAHA EPPLEY   PTSUNNY   40  30  67 N8        30.30R WCI  34
BLAIR          CLOUDY    39  30  71 NW8       30.28R WCI  33
FREMONT        CLOUDY    39  30  70 NW5       30.30R
MILLARD        MOSUNNY   42  30  62 N5        30.29R
OFFUTT AFB     MOSUNNY   42  30  61 NW5       30.28S
PLATTSMOUTH    SUNNY     42  26  52 NW6       30.29R
WAHOO          FAIR      42  28  57 N8        30.29R
$$




USA.gov is the U.S. government's official web portal to all federal, state and local government web resources and services.